This demonstration page uses our WeatherBlox Daily Observations layout. Learn more.

Left ArrowRight Arrow

38.80484, -77.04692

Hourly Observations for February 28, 2022

Temp ( °F °C ) Dew Point ( °F °C ) Humidity (%) Winds ( mph kmh ) Pressure ( in mb ) Visibility ( mi km ) Precip ( " mm )
12:52 am 00:52 Clear 46 7.8 16 -8.9 30 30 NW 6 9 30.09 1019 10 16 0.00 0.00
1:52 am 01:52 Clear 42 5.6 18 -7.8 38 38 NNW 10 17 30.10 1019 10 16 0.00 0.00
2:52 am 02:52 Mostly Clear 40 4.4 21 -6.1 47 47 NNW 10 17 30.12 1020 10 16 0.00 0.00
3:52 am 03:52 Partly Cloudy 40 4.4 21 -6.1 47 47 NW 8 13 30.14 1021 10 16 0.00 0.00
4:52 am 04:52 Mostly Clear 40 4.4 21 -6.1 47 47 NW 9 15 30.16 1021 10 16 0.00 0.00
5:52 am 05:52 Partly Cloudy 37 2.8 22 -5.6 54 54 NNW 8 13 30.19 1022 10 16 0.00 0.00
6:52 am 06:52 Mostly Sunny 40 4.4 24 -4.4 53 53 N 15 24 30.22 1023 10 16 0.00 0.00
7:52 am 07:52 Mostly Sunny 40 4.4 21 -6.1 47 47 N 15 24 30.24 1024 10 16 0.00 0.00
8:52 am 08:52 Mostly Sunny 42 5.6 21 -6.1 43 43 NNE 12 19 30.28 1025 10 16 0.00 0.00
9:52 am 09:52 Mostly Sunny 44 6.7 20 -6.7 38 38 N 13 20 30.29 1026 10 16 0.00 0.00
10:52 am 10:52 Mostly Sunny 46 7.8 20 -6.7 35 35 N 9 15 30.30 1026 10 16 0.00 0.00
11:52 am 11:52 Mostly Sunny 47 8.3 20 -6.7 34 34 NNW 8 13 30.29 1026 10 16 0.00 0.00
12:52 pm 12:52 Mostly Sunny 48 8.9 18 -7.8 30 30 NNW 14 22 30.27 1025 10 16 0.00 0.00
1:52 pm 13:52 Mostly Sunny 50 10 18 -7.8 28 28 NW 7 11 30.25 1024 10 16 0.00 0.00
2:52 pm 14:52 Mostly Sunny 50 10 17 -8.3 27 27 ENE 6 9 30.24 1024 10 16 0.00 0.00
3:52 pm 15:52 Mostly Sunny 50 10 17 -8.3 27 27 ENE 6 9 30.24 1024 10 16 0.00 0.00
4:52 pm 16:52 Partly Cloudy 47 8.3 22 -5.6 37 37 SE 10 17 30.24 1024 10 16 0.00 0.00
5:52 pm 17:52 Partly Cloudy 44 6.7 22 -5.6 41 41 E 10 17 30.25 1024 10 16 0.00 0.00
6:52 pm 18:52 Partly Cloudy 42 5.6 19 -7.2 40 40 E 7 11 30.25 1025 10 16 0.00 0.00
7:52 pm 19:52 Partly Cloudy 40 4.4 17 -8.3 40 40 Calm 30.25 1025 10 16 0.00 0.00
8:52 pm 20:52 Partly Cloudy 39 3.9 18 -7.8 43 43 SSE 6 9 30.25 1024 10 16 0.00 0.00
9:52 pm 21:52 Partly Cloudy 38 3.3 21 -6.1 51 51 SSE 8 13 30.25 1024 10 16 0.00 0.00
10:52 pm 22:52 Mostly Cloudy 37 2.8 27 -2.8 67 67 SSE 12 19 30.27 1025 10 16 0.00 0.00
11:52 pm 23:52 Mostly Cloudy 36 2.2 27 -2.8 70 70 SSE 8 13 30.27 1025 10 16 0.00 0.00

Powered by AerisWeather